Time,TemperatureF,DewpointF,PressureIn,WindDirection,WindDirectionDegrees,WindSpeedMPH,WindSpeedGustMPH,Humidity,HourlyPrecipIn,Conditions,Clouds,dailyrainin,SoftwareType,DateUTC
2013-10-14 00:12:00,41.0,35.0,-100.00,ENE,65,14.0,19.0,81,-99.99,,,-99.99,,2013-10-14 06:12:00,
2013-10-14 00:52:00,40.0,35.0,-100.00,NE,55,19.0,24.0,81,-99.99,,,-99.99,,2013-10-14 06:52:00,
2013-10-14 01:11:00,40.0,35.0,-100.00,ENE,65,19.0,26.0,81,-99.99,,,-99.99,,2013-10-14 07:11:00,
2013-10-14 01:52:00,41.0,36.0,-100.00,NE,55,20.0,25.0,81,-99.99,,,-99.99,,2013-10-14 07:52:00,
2013-10-14 02:12:00,41.0,36.0,-100.00,NE,55,17.0,24.0,82,-99.99,,,-99.99,,2013-10-14 08:12:00,
2013-10-14 02:52:00,41.0,36.0,-100.00,ENE,60,20.0,26.0,82,-99.99,,,-99.99,,2013-10-14 08:52:00,
2013-10-14 03:11:00,41.0,36.0,-100.00,NE,55,22.0,26.0,83,-99.99,,,-99.99,,2013-10-14 09:11:00,
2013-10-14 03:53:00,41.0,36.0,-100.00,ENE,65,21.0,29.0,82,-99.99,,,-99.99,,2013-10-14 09:53:00,
2013-10-14 04:12:00,41.0,36.0,-100.00,ENE,65,17.0,27.0,82,-99.99,,,-99.99,,2013-10-14 10:12:00,
2013-10-14 04:53:00,41.0,36.0,-100.00,NE,55,23.0,29.0,81,-99.99,,,-99.99,,2013-10-14 10:53:00,
2013-10-14 05:11:00,41.0,36.0,-100.00,NE,55,22.0,28.0,81,-99.99,,,-99.99,,2013-10-14 11:11:00,
2013-10-14 05:52:00,41.0,36.0,-100.00,NE,55,21.0,31.0,81,-99.99,,,-99.99,,2013-10-14 11:52:00,
2013-10-14 06:12:00,41.0,36.0,-100.00,ENE,60,19.0,27.0,81,-99.99,,,-99.99,,2013-10-14 12:12:00,
2013-10-14 06:52:00,40.0,35.0,-100.00,NE,55,21.0,26.0,81,-99.99,,,-99.99,,2013-10-14 12:52:00,
2013-10-14 07:11:00,40.0,35.0,-100.00,NE,55,21.0,29.0,81,-99.99,,,-99.99,,2013-10-14 13:11:00,
2013-10-14 07:52:00,40.0,35.0,-100.00,NE,55,19.0,27.0,81,-99.99,,,-99.99,,2013-10-14 13:52:00,
2013-10-14 08:11:00,40.0,35.0,-100.00,NE,50,19.0,26.0,81,-99.99,,,-99.99,,2013-10-14 14:11:00,
2013-10-14 08:52:00,40.0,35.0,-100.00,NE,40,19.0,24.0,81,-99.99,,,-99.99,,2013-10-14 14:52:00,
2013-10-14 09:11:00,40.0,35.0,-100.00,NE,45,18.0,27.0,81,-99.99,,,-99.99,,2013-10-14 15:11:00,
2013-10-14 09:54:00,40.0,35.0,-100.00,NE,40,17.0,22.0,81,-99.99,,,-99.99,,2013-10-14 15:54:00,
2013-10-14 10:13:00,40.0,35.0,-100.00,NE,40,16.0,22.0,81,-99.99,,,-99.99,,2013-10-14 16:13:00,
2013-10-14 10:53:00,40.0,35.0,-100.00,NNE,20,19.0,27.0,80,-99.99,,,-99.99,,2013-10-14 16:53:00,
2013-10-14 11:11:00,40.0,35.0,-100.00,NE,35,17.0,26.0,80,-99.99,,,-99.99,,2013-10-14 17:11:00,
2013-10-14 11:52:00,40.0,34.0,-100.00,North,10,19.0,27.0,80,-99.99,,,-99.99,,2013-10-14 17:52:00,
2013-10-14 12:12:00,40.0,34.0,-100.00,NNE,15,18.0,30.0,80,-99.99,,,-99.99,,2013-10-14 18:12:00,
2013-10-14 12:52:00,38.0,33.0,-100.00,NNE,15,22.0,31.0,80,-99.99,,,-99.99,,2013-10-14 18:52:00,
2013-10-14 13:11:00,38.0,32.0,-100.00,NNE,15,27.0,34.0,80,-99.99,,,-99.99,,2013-10-14 19:11:00,
2013-10-14 13:52:00,36.0,30.0,-100.00,North,5,22.0,31.0,80,-99.99,,,-99.99,,2013-10-14 19:52:00,
2013-10-14 14:11:00,36.0,31.0,-100.00,North,10,22.0,29.0,80,-99.99,,,-99.99,,2013-10-14 20:11:00,
2013-10-14 14:52:00,34.0,29.0,-100.00,North,0,21.0,27.0,83,-99.99,,,-99.99,,2013-10-14 20:52:00,
2013-10-14 15:12:00,34.0,29.0,-100.00,North,0,21.0,26.0,83,-99.99,,,-99.99,,2013-10-14 21:12:00,
2013-10-14 15:55:00,33.0,29.0,-100.00,North,0,19.0,26.0,83,-99.99,,,-99.99,,2013-10-14 21:55:00,
2013-10-14 16:13:00,34.0,29.0,-100.00,North,0,19.0,28.0,83,-99.99,,,-99.99,,2013-10-14 22:13:00,
2013-10-14 16:54:00,34.0,29.0,-100.00,North,0,22.0,30.0,84,-99.99,,,-99.99,,2013-10-14 22:54:00,
2013-10-14 17:12:00,34.0,29.0,-100.00,North,0,21.0,29.0,83,-99.99,,,-99.99,,2013-10-14 23:12:00,
2013-10-14 17:53:00,33.0,29.0,-100.00,North,0,16.0,26.0,83,-99.99,,,-99.99,,2013-10-14 23:53:00,
2013-10-14 18:12:00,33.0,29.0,-100.00,North,0,17.0,24.0,83,-99.99,,,-99.99,,2013-10-15 00:12:00,
2013-10-14 18:52:00,33.0,29.0,-100.00,North,350,18.0,22.0,83,-99.99,,,-99.99,,2013-10-15 00:52:00,
2013-10-14 19:12:00,33.0,29.0,-100.00,North,350,18.0,23.0,83,-99.99,,,-99.99,,2013-10-15 01:12:00,
2013-10-14 19:52:00,33.0,29.0,-100.00,North,0,18.0,23.0,83,-99.99,,,-99.99,,2013-10-15 01:52:00,
2013-10-14 20:12:00,33.0,29.0,-100.00,North,0,14.0,23.0,83,-99.99,,,-99.99,,2013-10-15 02:12:00,
2013-10-14 20:52:00,33.0,29.0,-100.00,North,355,17.0,21.0,83,-99.99,,,-99.99,,2013-10-15 02:52:00,
2013-10-14 21:12:00,33.0,29.0,-100.00,North,350,16.0,19.0,83,-99.99,,,-99.99,,2013-10-15 03:12:00,
2013-10-14 21:55:00,33.0,29.0,-100.00,NNW,340,16.0,21.0,83,-99.99,,,-99.99,,2013-10-15 03:55:00,
2013-10-14 22:14:00,33.0,29.0,-100.00,NNW,340,16.0,20.0,83,-99.99,,,-99.99,,2013-10-15 04:14:00,
2013-10-14 22:54:00,33.0,29.0,-100.00,North,355,17.0,22.0,83,-99.99,,,-99.99,,2013-10-15 04:54:00,
2013-10-14 23:13:00,33.0,29.0,-100.00,North,355,16.0,21.0,83,-99.99,,,-99.99,,2013-10-15 05:13:00,
2013-10-14 23:53:00,33.0,29.0,-100.00,NNW,345,18.0,23.0,82,-99.99,,,-99.99,,2013-10-15 05:53:00,